,,PA_Meas_PMT16A,,PR_Meas_QMR101_102,,RH_Meas_QMH101,,SR_Meas_QMS101,,TA_Meas_QMH101,,GenWind,,GenWind,
time,status,PA,status,PR,status,RH,status,SR,status,TA,status,DirAvg,status,SpdAvg,
2011-06-12, 00:00:04,VALID,918.006,VALID,0,VALID,96.1313,VALID,0,VALID,20.3464,VALID,30,VALID,0,
2011-06-12, 00:01:04,VALID,917.984,VALID,0,VALID,96.1389,VALID,0,VALID,20.3448,VALID,30,VALID,0,
2011-06-12, 00:02:04,VALID,917.995,VALID,0,VALID,96.0322,VALID,0,VALID,20.3269,VALID,30,VALID,0,
2011-06-12, 00:03:04,VALID,917.997,VALID,0,VALID,95.895,VALID,0,VALID,20.2473,VALID,30,VALID,0,
2011-06-12, 00:04:04,VALID,918.032,VALID,0,VALID,95.7425,VALID,0,VALID,20.2098,VALID,30,VALID,0,
2011-06-12, 00:05:04,VALID,918.012,VALID,0,VALID,95.6281,VALID,0,VALID,20.1708,VALID,30,VALID,0,
2011-06-12, 00:06:04,VALID,917.992,VALID,0,VALID,95.5138,VALID,0,VALID,20.1318,VALID,30,VALID,0,
2011-06-12, 00:07:04,VALID,917.989,VALID,0,VALID,95.3384,VALID,0,VALID,20.0538,VALID,30,VALID,0,
2011-06-12, 00:08:04,VALID,917.988,VALID,0,VALID,94.599,VALID,0,VALID,19.8978,VALID,30,VALID,0,
2011-06-12, 00:09:04,VALID,917.967,VALID,0,VALID,94.6676,VALID,0,VALID,19.8378,VALID,30,VALID,0,
2011-06-12, 00:10:04,VALID,917.974,VALID,0,VALID,95.0945,VALID,0,VALID,19.8573,VALID,30,VALID,0,
2011-06-12, 00:11:04,VALID,917.939,VALID,0,VALID,95.3461,VALID,0,VALID,19.8993,VALID,30,VALID,0,
2011-06-12, 00:12:04,VALID,917.87,VALID,0,VALID,95.5595,VALID,0,VALID,19.8573,VALID,30,VALID,0,
2011-06-12, 00:13:04,VALID,917.896,VALID,0,VALID,95.712,VALID,0,VALID,19.8378,VALID,30,VALID,0,
2011-06-12, 00:14:04,VALID,917.88,VALID,0,VALID,95.773,VALID,0,VALID,19.8393,VALID,30,VALID,0,
2011-06-12, 00:15:05,VALID,917.857,VALID,0,VALID,95.9026,VALID,0,VALID,19.8198,VALID,30,VALID,0.308984,
2011-06-12, 00:16:05,VALID,917.877,VALID,0,VALID,96.1008,VALID,0,VALID,19.8378,VALID,30,VALID,0.186719,
2011-06-12, 00:17:05,VALID,917.872,VALID,0,VALID,96.2456,VALID,0,VALID,19.8963,VALID,30,VALID,0.365234,
2011-06-12, 00:18:05,VALID,917.894,VALID,0,VALID,96.4057,VALID,0,VALID,19.9353,VALID,30,VALID,0.0617188,
2011-06-12, 00:19:05,VALID,917.886,VALID,0,VALID,96.4438,VALID,0,VALID,19.9758,VALID,30,VALID,0,
2011-06-12, 00:20:05,VALID,917.905,VALID,0,VALID,96.4057,VALID,0,VALID,19.9563,VALID,30,VALID,0,
2011-06-12, 00:21:05,VALID,917.901,VALID,0,VALID,96.3295,VALID,0,VALID,19.9158,VALID,30,VALID,0.289844,
2011-06-12, 00:22:05,VALID,917.896,VALID,0,VALID,96.1389,VALID,0,VALID,19.8183,VALID,30,VALID,0.337109,
2011-06-12, 00:23:05,VALID,917.915,VALID,0,VALID,96.0245,VALID,0,VALID,19.7238,VALID,30,VALID,0.353125,
2011-06-12, 00:24:05,VALID,917.883,VALID,0,VALID,96.2761,VALID,0,VALID,19.7028,VALID,30,VALID,0.393359,
2011-06-12, 00:25:05,VALID,917.865,VALID,0,VALID,96.3295,VALID,0,VALID,19.7223,VALID,30,VALID,0.252734,
2011-06-12, 00:26:05,VALID,917.891,VALID,0,VALID,96.3447,VALID,0,VALID,19.6833,VALID,30,VALID,0.0117188,
2011-06-12, 00:27:05,VALID,917.879,VALID,0,VALID,96.3676,VALID,0,VALID,19.6833,VALID,30,VALID,0,
2011-06-12, 00:28:05,VALID,917.873,VALID,0,VALID,96.3524,VALID,0,VALID,19.6443,VALID,30,VALID,0,
2011-06-12, 00:29:05,VALID,917.902,VALID,0,VALID,96.3752,VALID,0,VALID,19.6038,VALID,30,VALID,0.111328,
2011-06-12, 00:30:05,VALID,917.891,VALID,0,VALID,96.3752,VALID,0,VALID,19.6053,VALID,30,VALID,0.366016,
2011-06-12, 00:31:05,VALID,917.9,VALID,0,VALID,96.4819,VALID,0,VALID,19.6248,VALID,30,VALID,0.405469,
2011-06-12, 00:32:05,VALID,917.883,VALID,0,VALID,96.4743,VALID,0,VALID,19.6053,VALID,30,VALID,0.352344,
2011-06-12, 00:33:05,VALID,917.883,VALID,0,VALID,96.4362,VALID,0,VALID,19.5663,VALID,30,VALID,0.226172,
2011-06-12, 00:34:05,VALID,917.893,VALID,0,VALID,96.5124,VALID,0,VALID,19.5873,VALID,30,VALID,0,
2011-06-12, 00:35:05,VALID,917.896,VALID,0,VALID,96.5811,VALID,0,VALID,19.5858,VALID,30,VALID,0,
2011-06-12, 00:36:05,VALID,917.883,VALID,0,VALID,96.5811,VALID,0,VALID,19.6053,VALID,30,VALID,0.000390625,
2011-06-12, 00:37:05,VALID,917.89,VALID,0,VALID,96.5506,VALID,0,VALID,19.5858,VALID,30,VALID,0.327344,
2011-06-12, 00:38:05,VALID,917.908,VALID,0,VALID,96.5734,VALID,0,VALID,19.5468,VALID,30,VALID,0.451562,
2011-06-12, 00:39:05,VALID,917.897,VALID,0,VALID,96.5734,VALID,0,VALID,19.5468,VALID,30,VALID,0.454688,
2011-06-12, 00:40:05,VALID,917.893,VALID,0,VALID,96.5811,VALID,0,VALID,19.5273,VALID,30,VALID,0.252734,
2011-06-12, 00:41:05,VALID,917.861,VALID,0,VALID,96.4515,VALID,0,VALID,19.4298,VALID,30,VALID,0.210938,
2011-06-12, 00:42:05,VALID,917.859,VALID,0,VALID,96.4057,VALID,0,VALID,19.3518,VALID,30,VALID,0.132031,
2011-06-12, 00:43:05,VALID,917.865,VALID,0,VALID,96.4057,VALID,0,VALID,19.3323,VALID,30,VALID,0.264062,
2011-06-12, 00:44:05,VALID,917.854,VALID,0,VALID,96.3905,VALID,0,VALID,19.2738,VALID,30,VALID,0.494141,
2011-06-12, 00:45:05,VALID,917.808,VALID,0,VALID,96.5658,VALID,0,VALID,19.3128,VALID,30,VALID,0.444141,
2011-06-12, 00:46:05,VALID,917.814,VALID,0,VALID,96.6725,VALID,0,VALID,19.3713,VALID,30,VALID,0.335938,
2011-06-12, 00:47:05,VALID,917.803,VALID,0,VALID,96.703,VALID,0,VALID,19.4103,VALID,30,VALID,0.148828,
2011-06-12, 00:48:05,VALID,917.813,VALID,0,VALID,96.764,VALID,0,VALID,19.4688,VALID,30,VALID,0.411719,
2011-06-12, 00:49:05,VALID,917.793,VALID,0,VALID,96.7183,VALID,0,VALID,19.4103,VALID,30,VALID,0.316797,
2011-06-12, 00:50:05,VALID,917.807,VALID,0,VALID,96.703,VALID,0,VALID,19.4103,VALID,30,VALID,0.599609,
2011-06-12, 00:51:05,VALID,917.797,VALID,0,VALID,96.7716,VALID,0,VALID,19.4298,VALID,30,VALID,0.536328,
2011-06-12, 00:52:05,VALID,917.807,VALID,0,VALID,96.7716,VALID,0,VALID,19.4493,VALID,31,VALID,0.391406,
2011-06-12, 00:53:05,VALID,917.804,VALID,0,VALID,96.8098,VALID,0,VALID,19.4883,VALID,30,VALID,0.357422,
2011-06-12, 00:54:05,VALID,917.785,VALID,0,VALID,96.825,VALID,0,VALID,19.5288,VALID,30,VALID,0.340234,
2011-06-12, 00:55:05,VALID,917.761,VALID,0,VALID,96.8326,VALID,0,VALID,19.5273,VALID,30,VALID,0.140625,
2011-06-12, 00:56:05,VALID,917.73,VALID,0,VALID,96.8631,VALID,0,VALID,19.5273,VALID,30,VALID,0.147656,
2011-06-12, 00:57:05,VALID,917.726,VALID,0,VALID,96.8631,VALID,0,VALID,19.6068,VALID,30,VALID,0.448047,
2011-06-12, 00:58:05,VALID,917.711,VALID,0,VALID,96.886,VALID,0,VALID,19.6053,VALID,30,VALID,0.294531,
2011-06-12, 00:59:05,VALID,917.677,VALID,0,VALID,96.8936,VALID,0,VALID,19.6443,VALID,30,VALID,0.438281,
2011-06-12, 01:00:05,VALID,917.654,VALID,0,VALID,96.9089,VALID,0,VALID,19.6848,VALID,30,VALID,0.453125,
2011-06-12, 01:01:05,VALID,917.638,VALID,0,VALID,96.9241,VALID,0,VALID,19.6623,VALID,30,VALID,0.303516,
2011-06-12, 01:02:05,VALID,917.635,VALID,0,VALID,96.9089,VALID,0,VALID,19.6833,VALID,30,VALID,0.340234,
2011-06-12, 01:03:05,VALID,917.582,VALID,0,VALID,96.9394,VALID,0,VALID,19.6443,VALID,30,VALID,0.305469,
2011-06-12, 01:04:05,VALID,917.596,VALID,0,VALID,96.9089,VALID,0,VALID,19.6248,VALID,30,VALID,0.294141,
2011-06-12, 01:05:05,VALID,917.584,VALID,0,VALID,96.886,VALID,0,VALID,19.5663,VALID,30,VALID,0.368359,
2011-06-12, 01:06:05,VALID,917.549,VALID,0,VALID,96.8098,VALID,0,VALID,19.4103,VALID,30,VALID,0.670313,
2011-06-12, 01:07:05,VALID,917.565,VALID,0,VALID,96.8098,VALID,0,VALID,19.3713,VALID,30,VALID,0.640625,
2011-06-12, 01:08:05,VALID,917.581,VALID,0,VALID,96.8784,VALID,0,VALID,19.4493,VALID,30,VALID,0.539844,
2011-06-12, 01:09:05,VALID,917.55,VALID,0,VALID,96.8936,VALID,0,VALID,19.5078,VALID,30,VALID,0.377344,
2011-06-12, 01:10:05,VALID,917.536,VALID,0,VALID,96.947,VALID,0,VALID,19.5078,VALID,30,VALID,0.426562,
2011-06-12, 01:11:05,VALID,917.559,VALID,0,VALID,96.9546,VALID,0,VALID,19.5078,VALID,30,VALID,0.263672,
2011-06-12, 01:12:05,VALID,917.566,VALID,0,VALID,96.9546,VALID,0,VALID,19.5078,VALID,30,VALID,0.159766,
2011-06-12, 01:13:05,VALID,917.529,VALID,0,VALID,96.9927,VALID,0,VALID,19.5273,VALID,30,VALID,0.217187,
2011-06-12, 01:14:05,VALID,917.546,VALID,0,VALID,96.9775,VALID,0,VALID,19.5078,VALID,30,VALID,0,
2011-06-12, 01:15:05,VALID,917.54,VALID,0,VALID,96.9775,VALID,0,VALID,19.5498,VALID,30,VALID,0.265234,
2011-06-12, 01:16:05,VALID,917.504,VALID,0,VALID,96.9927,VALID,0,VALID,19.5078,VALID,30,VALID,0.314453,
2011-06-12, 01:17:05,VALID,917.534,VALID,0,VALID,97.0003,VALID,0,VALID,19.5273,VALID,30,VALID,0.0242187,
2011-06-12, 01:18:05,VALID,917.472,VALID,0,VALID,97.0156,VALID,0,VALID,19.5273,VALID,30,VALID,0,
2011-06-12, 01:19:05,VALID,917.422,VALID,0,VALID,97.0232,VALID,0,VALID,19.5663,VALID,30,VALID,0,
2011-06-12, 01:20:05,VALID,917.425,VALID,0,VALID,97.0385,VALID,0,VALID,19.5663,VALID,30,VALID,0,
2011-06-12, 01:21:05,VALID,917.367,VALID,0,VALID,97.0461,VALID,0,VALID,19.5663,VALID,30,VALID,0,
2011-06-12, 01:22:05,VALID,917.346,VALID,0,VALID,97.0461,VALID,0,VALID,19.5858,VALID,30,VALID,0,
2011-06-12, 01:23:05,VALID,917.37,VALID,0,VALID,97.0613,VALID,0,VALID,19.5468,VALID,30,VALID,0.0824219,
2011-06-12, 01:24:05,VALID,917.36,VALID,0,VALID,97.0537,VALID,0,VALID,19.5273,VALID,30,VALID,0.157813,
2011-06-12, 01:25:05,VALID,917.331,VALID,0,VALID,97.069,VALID,0,VALID,19.5273,VALID,30,VALID,0,
2011-06-12, 01:26:05,VALID,917.363,VALID,0,VALID,97.0537,VALID,0,VALID,19.5078,VALID,30,VALID,0,
2011-06-12, 01:27:05,VALID,917.374,VALID,0,VALID,97.0461,VALID,0,VALID,19.4478,VALID,30,VALID,0,
2011-06-12, 01:28:05,VALID,917.413,VALID,0,VALID,97.0385,VALID,0,VALID,19.4298,VALID,30,VALID,0.360938,
2011-06-12, 01:29:05,VALID,917.37,VALID,0,VALID,97.0308,VALID,0,VALID,19.4103,VALID,30,VALID,0.459766,
2011-06-12, 01:30:05,VALID,917.373,VALID,0,VALID,97.0308,VALID,0,VALID,19.3923,VALID,30,VALID,0.641797,
2011-06-12, 01:31:05,VALID,917.408,VALID,0,VALID,97.0308,VALID,0,VALID,19.3128,VALID,30,VALID,0.383594,
2011-06-12, 01:32:05,VALID,917.391,VALID,0,VALID,97.0232,VALID,0,VALID,19.2948,VALID,30,VALID,0.410156,
2011-06-12, 01:33:05,VALID,917.382,VALID,0,VALID,97.0232,VALID,0,VALID,19.2528,VALID,30,VALID,0.283594,
2011-06-12, 01:34:05,VALID,917.403,VALID,0,VALID,97.0461,VALID,0,VALID,19.2738,VALID,30,VALID,0,
2011-06-12, 01:35:05,VALID,917.397,VALID,0,VALID,97.0613,VALID,0,VALID,19.3338,VALID,30,VALID,0.280469,
2011-06-12, 01:36:05,VALID,917.413,VALID,0,VALID,97.0918,VALID,0,VALID,19.2738,VALID,30,VALID,0.162109,
2011-06-12, 01:37:05,VALID,917.39,VALID,0,VALID,97.0994,VALID,0,VALID,19.2933,VALID,31,VALID,0,
2011-06-12, 01:38:05,VALID,917.334,VALID,0,VALID,97.1223,VALID,0,VALID,19.2738,VALID,30,VALID,0.479688,
2011-06-12, 01:39:05,VALID,917.338,VALID,0,VALID,97.1071,VALID,0,VALID,19.2738,VALID,30,VALID,0.602344,
2011-06-12, 01:40:05,VALID,917.295,VALID,0,VALID,97.1452,VALID,0,VALID,19.2933,VALID,30,VALID,0.191016,
2011-06-12, 01:41:05,VALID,917.294,VALID,0,VALID,97.1299,VALID,0,VALID,19.3128,VALID,30,VALID,0.175,
2011-06-12, 01:42:05,VALID,917.283,VALID,0,VALID,97.1376,VALID,0,VALID,19.2543,VALID,30,VALID,0.351563,
2011-06-12, 01:43:05,VALID,917.291,VALID,0,VALID,97.1376,VALID,0,VALID,19.2348,VALID,31,VALID,0.56875,
2011-06-12, 01:44:05,VALID,917.304,VALID,0,VALID,97.1528,VALID,0,VALID,19.2153,VALID,31,VALID,0.5125,
2011-06-12, 01:45:05,VALID,917.322,VALID,0,VALID,97.1528,VALID,0,VALID,19.1568,VALID,30,VALID,0.416406,
2011-06-12, 01:46:05,VALID,917.324,VALID,0,VALID,97.1528,VALID,0,VALID,19.1373,VALID,30,VALID,0.560938,
2011-06-12, 01:47:05,VALID,917.341,VALID,0,VALID,97.1528,VALID,0,VALID,19.1178,VALID,30,VALID,0.522266,
2011-06-12, 01:48:05,VALID,917.303,VALID,0,VALID,97.1681,VALID,0,VALID,19.1193,VALID,31,VALID,0.776563,
2011-06-12, 01:49:05,VALID,917.283,VALID,0,VALID,97.1681,VALID,0,VALID,19.0983,VALID,30,VALID,0.543359,
2011-06-12, 01:50:05,VALID,917.248,VALID,0,VALID,97.1909,VALID,0,VALID,19.0593,VALID,30,VALID,0.541406,
2011-06-12, 01:51:05,VALID,917.246,VALID,0,VALID,97.1986,VALID,0,VALID,19.0203,VALID,30,VALID,0.680859,
2011-06-12, 01:52:05,VALID,917.251,VALID,0,VALID,97.1757,VALID,0,VALID,19.0593,VALID,30,VALID,0.736719,
2011-06-12, 01:53:05,VALID,917.239,VALID,0,VALID,97.2062,VALID,0,VALID,19.0398,VALID,30,VALID,0.657812,
2011-06-12, 01:54:05,VALID,917.256,VALID,0,VALID,97.2062,VALID,0,VALID,19.0593,VALID,30,VALID,0.971484,
2011-06-12, 01:55:05,VALID,917.246,VALID,0,VALID,97.2443,VALID,0,VALID,19.0803,VALID,30,VALID,0.766797,
2011-06-12, 01:56:05,VALID,917.261,VALID,0,VALID,97.2138,VALID,0,VALID,19.0593,VALID,31,VALID,0.580859,
2011-06-12, 01:57:05,VALID,917.269,VALID,0,VALID,97.2443,VALID,0,VALID,19.0803,VALID,30,VALID,0.575391,
2011-06-12, 01:58:05,VALID,917.26,VALID,0,VALID,97.2443,VALID,0,VALID,19.0788,VALID,30,VALID,0.448438,
2011-06-12, 01:59:05,VALID,917.249,VALID,0,VALID,97.2443,VALID,0,VALID,19.0788,VALID,30,VALID,0.495703,
2011-06-12, 02:00:05,VALID,917.24,VALID,0,VALID,97.2443,VALID,0,VALID,19.0983,VALID,30,VALID,0.580078,
2011-06-12, 02:01:05,VALID,917.203,VALID,0,VALID,97.2672,VALID,0,VALID,19.0788,VALID,30,VALID,0.0683594,
2011-06-12, 02:02:05,VALID,917.192,VALID,0,VALID,97.2672,VALID,0,VALID,19.0788,VALID,31,VALID,0.333203,
2011-06-12, 02:03:05,VALID,917.174,VALID,0,VALID,97.2748,VALID,0,VALID,19.0983,VALID,31,VALID,0.19375,
2011-06-12, 02:04:05,VALID,917.165,VALID,0,VALID,97.29,VALID,0,VALID,19.0983,VALID,30,VALID,0.323438,
2011-06-12, 02:05:05,VALID,917.149,VALID,0,VALID,97.2824,VALID,0,VALID,19.0788,VALID,30,VALID,0.505469,
2011-06-12, 02:06:05,VALID,917.154,VALID,0,VALID,97.29,VALID,0,VALID,19.0593,VALID,30,VALID,0.695313,
2011-06-12, 02:07:05,VALID,917.152,VALID,0,VALID,97.29,VALID,0,VALID,19.0593,VALID,30,VALID,0.558984,
2011-06-12, 02:08:05,VALID,917.148,VALID,0,VALID,97.29,VALID,0,VALID,19.0398,VALID,30,VALID,0.297266,
2011-06-12, 02:09:05,VALID,917.12,VALID,0,VALID,97.29,VALID,0,VALID,19.0398,VALID,30,VALID,0.310937,
2011-06-12, 02:10:05,VALID,917.121,VALID,0,VALID,97.2977,VALID,0,VALID,19.0413,VALID,31,VALID,0.403125,
2011-06-12, 02:11:05,VALID,917.13,VALID,0,VALID,97.29,VALID,0,VALID,19.0608,VALID,30,VALID,0.677344,
2011-06-12, 02:12:05,VALID,917.153,VALID,0,VALID,97.3053,VALID,0,VALID,19.0788,VALID,30,VALID,0.609766,
2011-06-12, 02:13:05,VALID,917.101,VALID,0,VALID,97.3205,VALID,0,VALID,19.0998,VALID,30,VALID,0.614453,
2011-06-12, 02:14:05,VALID,917.086,VALID,0,VALID,97.3205,VALID,0,VALID,19.0774,VALID,30,VALID,0.678906,
2011-06-12, 02:15:05,VALID,917.052,VALID,0,VALID,97.3358,VALID,0.107441,VALID,19.0969,VALID,30,VALID,0.645703,
2011-06-12, 02:16:05,VALID,917.037,VALID,0,VALID,97.3281,VALID,0,VALID,19.1178,VALID,30,VALID,0.5375,
2011-06-12, 02:17:05,VALID,917.022,VALID,0,VALID,97.3358,VALID,0,VALID,19.0774,VALID,30,VALID,0.466797,
2011-06-12, 02:18:05,VALID,916.952,VALID,0,VALID,97.3358,VALID,0,VALID,19.0774,VALID,30,VALID,0.525,
2011-06-12, 02:19:05,VALID,916.937,VALID,0,VALID,97.351,VALID,0,VALID,19.0774,VALID,30,VALID,0.659766,
2011-06-12, 02:20:05,VALID,916.933,VALID,0,VALID,97.3434,VALID,0,VALID,19.0969,VALID,31,VALID,0.496484,
2011-06-12, 02:21:05,VALID,916.936,VALID,0,VALID,97.351,VALID,0,VALID,19.1178,VALID,30,VALID,0.521094,
2011-06-12, 02:22:05,VALID,916.918,VALID,0,VALID,97.3663,VALID,0.107441,VALID,19.1164,VALID,30,VALID,0.28125,
2011-06-12, 02:23:05,VALID,916.895,VALID,0,VALID,97.3434,VALID,0.107441,VALID,19.1359,VALID,30,VALID,0.596875,
2011-06-12, 02:24:05,VALID,916.914,VALID,0,VALID,97.3739,VALID,0,VALID,19.1763,VALID,30,VALID,0.649219,
2011-06-12, 02:25:05,VALID,916.885,VALID,0,VALID,97.3434,VALID,0.107441,VALID,19.1554,VALID,30,VALID,0.650781,
2011-06-12, 02:26:05,VALID,916.846,VALID,0,VALID,97.3739,VALID,0.107441,VALID,19.1359,VALID,30,VALID,0.725391,
2011-06-12, 02:27:05,VALID,916.846,VALID,0,VALID,97.3663,VALID,0.107441,VALID,19.1554,VALID,30,VALID,0.341406,
2011-06-12, 02:28:05,VALID,916.81,VALID,0,VALID,97.3891,VALID,0.107441,VALID,19.1944,VALID,30,VALID,0.666797,
2011-06-12, 02:29:05,VALID,916.793,VALID,0,VALID,97.3739,VALID,0,VALID,19.2168,VALID,30,VALID,0.266016,
2011-06-12, 02:30:05,VALID,916.799,VALID,0,VALID,97.3663,VALID,0,VALID,19.1749,VALID,30,VALID,0.265234,
2011-06-12, 02:31:05,VALID,916.745,VALID,0,VALID,97.3815,VALID,0,VALID,19.1958,VALID,30,VALID,0.35625,
2011-06-12, 02:32:05,VALID,916.743,VALID,0,VALID,97.3739,VALID,0,VALID,19.1763,VALID,30,VALID,0.694141,
2011-06-12, 02:33:05,VALID,916.769,VALID,0,VALID,97.4044,VALID,0,VALID,19.1763,VALID,30,VALID,0.351563,
2011-06-12, 02:34:05,VALID,916.736,VALID,0,VALID,97.3815,VALID,0,VALID,19.1568,VALID,30,VALID,0.455469,
2011-06-12, 02:35:05,VALID,916.754,VALID,0,VALID,97.3891,VALID,0,VALID,19.1958,VALID,30,VALID,0.772266,
2011-06-12, 02:36:05,VALID,916.73,VALID,0,VALID,97.3739,VALID,0,VALID,19.2153,VALID,30,VALID,0.635156,
2011-06-12, 02:37:05,VALID,916.727,VALID,0,VALID,97.3663,VALID,0,VALID,19.2153,VALID,30,VALID,0,
2011-06-12, 02:38:05,VALID,916.736,VALID,0,VALID,97.3968,VALID,0,VALID,19.2153,VALID,30,VALID,0.678906,
2011-06-12, 02:39:05,VALID,916.698,VALID,0,VALID,97.3968,VALID,0,VALID,19.2153,VALID,30,VALID,0.457422,
2011-06-12, 02:40:05,VALID,916.7,VALID,0,VALID,97.4044,VALID,0,VALID,19.1958,VALID,30,VALID,0.7375,
2011-06-12, 02:41:05,VALID,916.683,VALID,0,VALID,97.412,VALID,0,VALID,19.1958,VALID,30,VALID,0.495703,
2011-06-12, 02:42:05,VALID,916.695,VALID,0,VALID,97.3891,VALID,0,VALID,19.2168,VALID,30,VALID,0.887891,
2011-06-12, 02:43:05,VALID,916.674,VALID,0,VALID,97.3891,VALID,0,VALID,19.1763,VALID,30,VALID,0.559375,
2011-06-12, 02:44:05,VALID,916.656,VALID,0,VALID,97.412,VALID,0,VALID,19.2168,VALID,30,VALID,1.11367,
2011-06-12, 02:45:05,VALID,916.641,VALID,0,VALID,97.4196,VALID,0,VALID,19.2153,VALID,30,VALID,1.27148,
2011-06-12, 02:46:05,VALID,916.612,VALID,0,VALID,97.4044,VALID,0,VALID,19.2363,VALID,31,VALID,0.869531,
2011-06-12, 02:47:05,VALID,916.635,VALID,0,VALID,97.4044,VALID,0,VALID,19.2348,VALID,30,VALID,0.574219,
2011-06-12, 02:48:05,VALID,916.605,VALID,0,VALID,97.4196,VALID,0,VALID,19.2558,VALID,30,VALID,0.630859,
2011-06-12, 02:49:05,VALID,916.642,VALID,0,VALID,97.412,VALID,0,VALID,19.2348,VALID,30,VALID,0.914844,
2011-06-12, 02:50:05,VALID,916.613,VALID,0,VALID,97.4044,VALID,0,VALID,19.2153,VALID,30,VALID,0.906641,
2011-06-12, 02:51:05,VALID,916.62,VALID,0,VALID,97.412,VALID,0,VALID,19.2348,VALID,30,VALID,1.03125,
2011-06-12, 02:52:05,VALID,916.622,VALID,0,VALID,97.4196,VALID,0,VALID,19.2153,VALID,30,VALID,1.07578,
2011-06-12, 02:53:05,VALID,916.606,VALID,0,VALID,97.4349,VALID,0,VALID,19.2153,VALID,30,VALID,1.19609,
2011-06-12, 02:54:05,VALID,916.605,VALID,0,VALID,97.4044,VALID,0,VALID,19.1749,VALID,30,VALID,1.03828,
2011-06-12, 02:55:05,VALID,916.619,VALID,0,VALID,97.4196,VALID,0,VALID,19.2153,VALID,30,VALID,0.653906,
2011-06-12, 02:56:05,VALID,916.615,VALID,0,VALID,97.4349,VALID,0,VALID,19.2153,VALID,30,VALID,0.839063,
2011-06-12, 02:57:05,VALID,916.615,VALID,0,VALID,97.4425,VALID,0,VALID,19.1944,VALID,30,VALID,0.922266,
2011-06-12, 02:58:05,VALID,916.625,VALID,0,VALID,97.4273,VALID,0,VALID,19.2377,VALID,30,VALID,0.635547,
2011-06-12, 02:59:04,VALID,916.617,VALID,0,VALID,97.4273,VALID,0,VALID,19.2168,VALID,30,VALID,0.795313,
2011-06-12, 03:00:04,VALID,916.613,VALID,0,VALID,97.4425,VALID,0,VALID,19.2168,VALID,30,VALID,0.572266,
2011-06-12, 03:01:04,VALID,916.588,VALID,0,VALID,97.4196,VALID,0,VALID,19.1958,VALID,30,VALID,0.976563,
2011-06-12, 03:02:04,VALID,916.593,VALID,0,VALID,97.4425,VALID,0,VALID,19.2153,VALID,31,VALID,0.542578,
2011-06-12, 03:03:04,VALID,916.616,VALID,0,VALID,97.4349,VALID,0,VALID,19.1763,VALID,30,VALID,1.05625,
2011-06-12, 03:04:04,VALID,916.607,VALID,0,VALID,97.4501,VALID,0,VALID,19.1568,VALID,31,VALID,0.731641,
2011-06-12, 03:05:04,VALID,916.61,VALID,0,VALID,97.4501,VALID,0,VALID,19.1568,VALID,30,VALID,0.567578,
2011-06-12, 03:06:04,VALID,916.657,VALID,0,VALID,97.4577,VALID,0,VALID,19.1373,VALID,30,VALID,0.889844,
2011-06-12, 03:07:04,VALID,916.62,VALID,0,VALID,97.4654,VALID,0,VALID,19.1388,VALID,30,VALID,1.07617,
2011-06-12, 03:08:04,VALID,916.623,VALID,0,VALID,97.4577,VALID,0,VALID,19.1193,VALID,31,VALID,0.723828,
2011-06-12, 03:09:04,VALID,916.599,VALID,0,VALID,97.4577,VALID,0,VALID,19.0983,VALID,30,VALID,0.90625,
2011-06-12, 03:10:04,VALID,916.587,VALID,0,VALID,97.4577,VALID,0,VALID,19.0788,VALID,30,VALID,0.587891,
2011-06-12, 03:11:04,VALID,916.585,VALID,0,VALID,97.4654,VALID,0,VALID,19.0998,VALID,31,VALID,0.70625,
2011-06-12, 03:12:04,VALID,916.57,VALID,0,VALID,97.473,VALID,0,VALID,19.0788,VALID,31,VALID,1.14922,
2011-06-12, 03:13:04,VALID,916.543,VALID,0,VALID,97.4654,VALID,0,VALID,19.0803,VALID,30,VALID,0.345703,
2011-06-12, 03:14:04,VALID,916.497,VALID,0,VALID,97.4806,VALID,0,VALID,19.0579,VALID,30,VALID,0.560156,
2011-06-12, 03:15:04,VALID,916.515,VALID,0,VALID,97.4882,VALID,0,VALID,19.0579,VALID,31,VALID,0.929297,
2011-06-12, 03:16:04,VALID,916.501,VALID,0,VALID,97.4882,VALID,0,VALID,19.0579,VALID,31,VALID,0.798047,
2011-06-12, 03:17:04,VALID,916.459,VALID,0,VALID,97.473,VALID,0,VALID,19.0384,VALID,30,VALID,0.529688,
2011-06-12, 03:18:04,VALID,916.454,VALID,0,VALID,97.4806,VALID,0,VALID,19.0593,VALID,30,VALID,0.441016,
2011-06-12, 03:19:04,VALID,916.47,VALID,0,VALID,97.4654,VALID,0,VALID,19.0398,VALID,30,VALID,0.798828,
2011-06-12, 03:20:04,VALID,916.454,VALID,0,VALID,97.473,VALID,0,VALID,19.0203,VALID,30,VALID,0.137891,
2011-06-12, 03:21:04,VALID,916.442,VALID,0,VALID,97.4882,VALID,0.107441,VALID,18.9994,VALID,30,VALID,0.293359,
2011-06-12, 03:22:04,VALID,916.469,VALID,0,VALID,97.5111,VALID,0,VALID,18.9409,VALID,30,VALID,0.596875,
2011-06-12, 03:23:04,VALID,916.446,VALID,0,VALID,97.4882,VALID,0,VALID,18.9229,VALID,30,VALID,0.644141,
2011-06-12, 03:24:04,VALID,916.437,VALID,0,VALID,97.4882,VALID,0.107441,VALID,18.8629,VALID,30,VALID,0.676172,
2011-06-12, 03:25:04,VALID,916.453,VALID,0,VALID,97.4882,VALID,0,VALID,18.8434,VALID,30,VALID,0.755859,
2011-06-12, 03:26:04,VALID,916.454,VALID,0,VALID,97.5187,VALID,0,VALID,18.8449,VALID,30,VALID,0.836328,
2011-06-12, 03:27:04,VALID,916.441,VALID,0,VALID,97.5111,VALID,0.107441,VALID,18.8045,VALID,31,VALID,0.70625,
2011-06-12, 03:28:04,VALID,916.412,VALID,0,VALID,97.5035,VALID,0,VALID,18.8059,VALID,30,VALID,0.476953,
2011-06-12, 03:29:04,VALID,916.461,VALID,0,VALID,97.5187,VALID,0,VALID,18.8059,VALID,30,VALID,0.566406,
2011-06-12, 03:30:04,VALID,916.418,VALID,0,VALID,97.5416,VALID,0,VALID,18.7669,VALID,46,VALID,1.06328,
2011-06-12, 03:31:04,VALID,916.433,VALID,0,VALID,97.5492,VALID,0,VALID,18.7683,VALID,153,VALID,0.890625,
2011-06-12, 03:32:04,VALID,916.411,VALID,0,VALID,97.5187,VALID,0,VALID,18.7488,VALID,153,VALID,0.394922,
2011-06-12, 03:33:04,VALID,916.422,VALID,0,VALID,97.5416,VALID,0,VALID,18.7488,VALID,152,VALID,0.682031,
2011-06-12, 03:34:04,VALID,916.447,VALID,0,VALID,97.5492,VALID,0,VALID,18.7683,VALID,152,VALID,0.723437,
2011-06-12, 03:35:04,VALID,916.439,VALID,0,VALID,97.5264,VALID,0,VALID,18.7669,VALID,152,VALID,0.934375,
2011-06-12, 03:36:04,VALID,916.443,VALID,0,VALID,97.5492,VALID,0,VALID,18.8073,VALID,148,VALID,0.750391,
2011-06-12, 03:37:04,VALID,916.462,VALID,0,VALID,97.5416,VALID,0,VALID,18.7864,VALID,148,VALID,0.642969,
2011-06-12, 03:38:04,VALID,916.43,VALID,0,VALID,97.5492,VALID,0,VALID,18.7864,VALID,145,VALID,0.569141,
2011-06-12, 03:39:04,VALID,916.442,VALID,0,VALID,97.5569,VALID,0,VALID,18.7864,VALID,144,VALID,0.783984,
2011-06-12, 03:40:04,VALID,916.461,VALID,0,VALID,97.5645,VALID,0,VALID,18.8073,VALID,140,VALID,0.761719,
2011-06-12, 03:41:04,VALID,916.471,VALID,0,VALID,97.5492,VALID,0,VALID,18.7683,VALID,147,VALID,0.892578,
2011-06-12, 03:42:04,VALID,916.463,VALID,0,VALID,97.5721,VALID,0,VALID,18.7474,VALID,139,VALID,0.65,
2011-06-12, 03:43:04,VALID,916.458,VALID,0,VALID,97.5721,VALID,0,VALID,18.7488,VALID,140,VALID,0.963672,
2011-06-12, 03:44:04,VALID,916.478,VALID,0,VALID,97.5721,VALID,0.107441,VALID,18.6875,VALID,140,VALID,0.719922,
2011-06-12, 03:45:04,VALID,916.471,VALID,0,VALID,97.5569,VALID,0,VALID,18.6499,VALID,140,VALID,1.03125,
2011-06-12, 03:46:04,VALID,916.456,VALID,0,VALID,97.5492,VALID,0,VALID,18.6304,VALID,144,VALID,1.08398,
2011-06-12, 03:47:04,VALID,916.448,VALID,0,VALID,97.5873,VALID,0,VALID,18.5914,VALID,143,VALID,0.506641,